User: anonymous   Login
Location: NJAA Observatory
(40.6819°N, 74.8979°W)
Time: 23:38:52
(UTC-04:00)
Language:

Cosmos 1461 - Orbit

View from above orbital plane
View from above orbital plane
View from above satellite
View from above satellite

Ground track
Ground track

The orbit data is extracted from the following two-line orbital elements,

1 14064U 83044A   17290.44334864 +.00001058 +00000-0 +10419-3 0  9991
2 14064 065.0002 266.5270 0105188 346.6494 013.1841 14.93802585741619
Epoch (UTC): 17 October 2017 10:38:25
Eccentricity: 0.0105188
inclination: 65.0002°
perigee height: 513 km
apogee height: 659 km
right ascension of ascending node: 266.5270°
argument of perigee: 346.6494°
revolutions per day: 14.93802585
mean anomaly at epoch: 13.1841°
orbit number at epoch: 74161

The dashed part of the orbit path shows where the satellite is in the earth's shadow,  

DLR